Torna al catalogo

SKYSAT C3

AttivoScienzaSSO
NORAD 41774·PAYLOAD·🇺🇸 United States

Lanciato Sep 16, 2016 da Guiana Space Centre

Loading…

Prossimi Passaggi (prossime 24 ore)

TLE

AggiornatoSource: Space-Track

Epoca: Sep 13, 2026, 14:23 UTC

1 41774U 16058E   26256.59947712  .00019920  00000-0  28609-3 0  9997
2 41774  96.8948 284.2388 0002018  75.0746 285.0733 15.56132734559840

Traccia SKYSAT C3 in tempo reale con AllMySat

Download on the App Store